User: anonymous   Login
Location: Unspecified
(0.0000°N, 0.0000°E)
Time: 23:09:46
(UTC+01:00)
Language:

Ariane H10 - Orbit

View from above orbital plane
View from above orbital plane
View from above satellite
View from above satellite

Ground track
Ground track

The orbit data is extracted from the following two-line orbital elements,

1 21727U 91067B   15084.02475552  .00000125  00000-0  95234-3 0  9994
2 21727 004.3423 309.5052 7186068 204.9222 012.7753 02.31547610159030
Epoch (UTC): 25 March 2015 00:35:38
Eccentricity: 0.7186068
inclination: 4.3423°
perigee height: 413 km
apogee height: 35099 km
right ascension of ascending node: 309.5052°
argument of perigee: 204.9222°
revolutions per day: 2.31547610
mean anomaly at epoch: 12.7753°
orbit number at epoch: 15903

The dashed part of the orbit path shows where the satellite is in the earth's shadow,  

DLR